GORIZONT 25 [-]

Last updated on Wed Jun 28 2023 01:02:54 GMT+0100 (British Summer Time)

1 21922U 92017A 23177.44841177 -.00000165 00000+0 00000+0 0 9992 2 21922 14.2605 350.5759 0029726 92.0319 268.2297 0.99845282114087
UTC large
Height (km)
Speed (km/s)
/
Latitude / Longitude
Inclination (degrees)
Orbital Period (minutes)
Azimuth
Elevation
Range (km)
Doppler Factor

Next 0 passes for location: London (51.5072 / 0.1276)

Sorry there are no passes over London.